Mountain Home, ID

5:49 PM MST on January 17, 2018 (GMT -0700)
Mountain Home Air Force Base

Weather History for KMUO - February, 2014

Change the Weather History Date:

Monday, February 24, 2014

  Actual Average Record
Temperature  
Mean Temperature 47 °F 37 °F  
Max Temperature 59 °F 48 °F 69 °F (1986)
Min Temperature 35 °F 26 °F 5 °F (1952)
Degree Days  
Heating Degree Days 18 28  
Month to date heating degree days 632 733  
Cooling Degree Days 0 0  
Month to date cooling degree days 0 0  
Moisture  
Dew Point 37 °F    
Average Humidity 72    
Maximum Humidity 100    
Minimum Humidity 39    
Precipitation  
Precipitation 0.00 in 0.03 in 0.38 in (1926)
Month to date precipitation 0.53 0.72  
Sea Level Pressure  
Sea Level Pressure 30.03 in    
Wind  
Wind Speed 4 mph (NNW)    
Max Wind Speed 10 mph    
Max Gust Speed -    
Visibility 10 miles    
Events      
T = Trace of Precipitation, MM = Missing Value Source: NWS Daily Summary

Daily Weather History Graph

Daily Weather History Graph

Search for Another Location

Airport or City:

Trip Planner

Search our weather history database for the weather conditions in past years. The results will help you decide how hot, cold, wet, or windy it might be!

Date:

Astronomy

Feb. 24, 2014 Rise Set
Actual Time 7:27 AM MST 6:26 PM MST
Civil Twilight 6:58 AM MST 6:55 PM MST
Nautical Twilight 6:25 AM MST 7:28 PM MST
Astronomical Twilight 5:52 AM MST 8:01 PM MST
Moon 3:35 AM MST (2/24) 1:27 PM MST (2/24)
Length of Visible Light 11h 56m
Length of Day
10h 59m
Waning Crescent, 27% of the Moon is Illuminated
Feb 24
Waning Crescent
Mar 1
New
Mar 8
First Quarter
Mar 16
Full
Mar 23
Last Quarter

Hourly Weather History & Observations

Time (MST) Temp. Windchill Dew Point Humidity Pressure Visibility Wind Dir Wind Speed Gust Speed Precip Events Conditions
12:13 AM 44.6 °F - 39.2 °F 81% 29.97 in 10.0 mi NE 2.3 mph - N/A   Overcast
12:53 AM 42.8 °F - 41.0 °F 93% 29.98 in 10.0 mi East 2.3 mph - N/A   Overcast
12:58 AM 43.3 °F - 40.3 °F 89% 29.99 in 10.0 mi ENE 2.3 mph - N/A   Overcast
1:03 AM 42.8 °F - 41.0 °F 93% 29.98 in 10.0 mi ENE 2.3 mph - N/A   Overcast
1:58 AM 42.4 °F - 41.5 °F 97% 29.99 in 10.0 mi East 1.2 mph - N/A   Overcast
2:58 AM 43.2 °F - 40.1 °F 89% 29.99 in 10.0 mi NNW 2.3 mph - N/A   Overcast
3:58 AM 41.0 °F - 41.0 °F 100% 30.01 in 10.0 mi Variable 1.2 mph - N/A   Overcast
4:58 AM 42.1 °F 39.2 °F 39.4 °F 90% 30.01 in 10.0 mi North 4.6 mph - N/A   Overcast
5:43 AM 39.2 °F 37.0 °F 39.2 °F 100% 30.02 in 10.0 mi NNW 3.5 mph - N/A   Scattered Clouds
5:58 AM 38.3 °F 33.9 °F 37.9 °F 99% 30.04 in 10.0 mi NNW 5.8 mph - N/A   Partly Cloudy
6:58 AM 35.6 °F 32.8 °F 35.6 °F 100% 30.07 in 10.0 mi NNW 3.5 mph - N/A   Clear
7:58 AM 34.9 °F 32.0 °F 34.9 °F 100% 30.09 in 10.0 mi WNW 3.5 mph - N/A   Clear
8:58 AM 39.7 °F 36.5 °F 39.7 °F 100% 30.12 in 10.0 mi West 4.6 mph - N/A   Clear
9:58 AM 48.9 °F - 36.7 °F 63% 30.10 in 10.0 mi West 8.1 mph - N/A   Clear
10:58 AM 52.9 °F - 36.5 °F 54% 30.10 in 10.0 mi Variable 6.9 mph - N/A   Clear
11:58 AM 55.0 °F - 35.1 °F 47% 30.09 in 10.0 mi WNW 10.4 mph - N/A   Clear
12:58 PM 56.7 °F - 33.4 °F 42% 30.07 in 10.0 mi NW 9.2 mph - N/A   Clear
1:58 PM 57.6 °F - 33.3 °F 40% 30.05 in 10.0 mi NNW 8.1 mph - N/A   Clear
2:58 PM 57.9 °F - 33.3 °F 39% 30.03 in 10.0 mi Variable 6.9 mph - N/A   Clear
3:58 PM 58.8 °F - 34.2 °F 40% 30.03 in 10.0 mi NW 5.8 mph - N/A   Clear
4:58 PM 59.0 °F - 34.5 °F 40% 30.01 in 10.0 mi NW 6.9 mph - N/A   Partly Cloudy
5:03 PM 59.0 °F - 33.8 °F 39% 30.02 in 10.0 mi NNW 10.4 mph - N/A   Mostly Cloudy
5:33 PM 57.2 °F - 33.8 °F 41% 30.02 in 10.0 mi NNW 9.2 mph - N/A   Overcast
5:58 PM 57.2 °F - 34.5 °F 43% 30.02 in 10.0 mi NNW 8.1 mph - N/A   Scattered Clouds
6:58 PM 54.3 °F - 35.2 °F 49% 30.03 in 10.0 mi North 4.6 mph - N/A   Partly Cloudy
7:58 PM 50.7 °F - 34.9 °F 55% 30.04 in 10.0 mi NW 4.6 mph - N/A   Partly Cloudy
8:58 PM 47.8 °F - 38.3 °F 70% 30.03 in 10.0 mi Calm Calm - N/A   Overcast
9:58 PM 48.9 °F - 37.4 °F 64% 30.02 in 10.0 mi NNE 2.3 mph - N/A   Mostly Cloudy
10:33 PM 44.6 °F 40.7 °F 41.0 °F 87% 30.02 in 10.0 mi South 6.9 mph - N/A   Mostly Cloudy
10:58 PM 43.9 °F 38.8 °F 41.4 °F 91% 30.03 in 10.0 mi South 9.2 mph - N/A   Scattered Clouds
11:58 PM 43.7 °F - 40.8 °F 90% 30.02 in 10.0 mi Variable 2.3 mph - N/A   Clear